User: anonymous   Login
Location: Unspecified
(0.0000°N, 0.0000°E)
Time: 19:58:20
(UTC+00:00)
Language:

SICH 2 - Orbit

View from above orbital plane
View from above orbital plane
View from above satellite
View from above satellite

Ground track
Ground track

The orbit data is extracted from the following two-line orbital elements,

1 37794U 11044G   19341.45320089  .00000043  00000-0  17703-4 0  9998
2 37794  97.9705  41.3254 0013558 145.9255 224.9484 14.61867054443063
Epoch (UTC): 07 December 2019 10:52:36
Eccentricity: 0.0013558
inclination: 97.9705°
perigee height: 677 km
apogee height: 697 km
right ascension of ascending node: 41.3254°
argument of perigee: 145.9255°
revolutions per day: 14.61867054
mean anomaly at epoch: 224.9484°
orbit number at epoch: 44306

The dashed part of the orbit path shows where the satellite is in the earth's shadow,  

DLR